Date,TemperatureHighF,TemperatureAvgF,TemperatureLowF,DewpointHighF,DewpointAvgF,DewpointLowF,HumidityHigh,HumidityAvg,HumidityLow,PressureMaxIn,PressureMinIn,WindSpeedMaxMPH,WindSpeedAvgMPH,GustSpeedMaxMPH,PrecipitationSumIn
2013-2-1,43.3,39.9,35.2,42.8,39.3,34.7,98,98,98,30.36,30.23,6,1,7,0.00
2013-2-2,49.8,40.9,35.9,48.6,40.2,35.4,98,97,92,30.33,30.25,3,1,5,0.00
2013-2-3,46.7,43.5,41.0,45.4,42.5,40.4,98,96,90,30.33,30.23,3,1,5,0.00
2013-2-4,52.7,44.9,39.9,45.1,42.1,39.4,98,91,68,30.24,29.96,3,1,4,0.00
2013-2-5,50.5,44.9,41.7,48.8,43.2,40.9,98,94,74,30.12,29.96,5,1,10,0.25
2013-2-6,51.6,45.0,39.3,45.1,39.8,36.1,98,83,57,30.15,29.86,6,1,11,0.08
2013-2-7,46.2,39.8,35.0,39.5,36.8,34.5,98,90,67,30.12,29.96,5,1,11,0.04
2013-2-8,40.6,37.6,35.0,37.9,35.4,32.6,98,92,75,30.31,30.12,7,2,10,0.00
2013-2-9,45.3,39.6,34.7,40.4,37.7,33.9,98,93,75,30.31,30.26,3,1,5,0.00
2013-2-10,44.7,41.4,39.7,41.7,38.7,35.8,98,91,78,30.33,30.27,6,1,9,0.00
2013-2-11,47.4,42.7,39.3,42.2,37.8,34.8,96,83,69,30.42,30.30,4,1,7,0.00
2013-2-12,53.7,46.6,42.9,50.6,45.4,42.0,98,96,83,30.50,30.42,6,2,7,0.04
2013-2-13,50.0,46.9,44.4,49.2,46.0,43.5,98,97,93,30.51,30.44,4,1,7,0.00
2013-2-14,52.5,46.0,40.6,47.4,43.0,40.1,98,90,73,30.57,30.44,6,1,8,0.00
2013-2-15,44.0,41.6,39.7,43.5,41.0,39.2,98,98,94,30.45,30.23,4,2,7,0.00
2013-2-16,49.1,43.3,38.1,48.5,42.1,37.3,98,96,83,30.30,30.23,4,2,6,0.00
2013-2-17,45.3,38.9,34.3,41.4,34.8,30.8,98,86,57,30.31,30.10,5,1,8,0.00
2013-2-18,46.2,38.5,32.5,38.3,34.7,31.4,98,87,69,30.10,29.75,5,1,8,0.00
2013-2-19,45.5,39.8,36.5,41.4,37.3,34.4,98,91,73,30.00,29.64,4,1,6,0.04
2013-2-20,47.6,39.9,34.3,41.0,37.3,33.4,98,91,68,30.15,30.00,4,2,10,0.09
2013-2-21,44.2,40.1,37.0,42.4,39.3,36.5,98,97,92,30.27,30.15,5,2,10,0.08
2013-2-22,45.6,42.0,37.5,43.5,40.2,35.7,98,93,78,30.21,29.99,6,2,11,0.21
2013-2-23,44.2,37.5,33.4,42.4,36.4,32.9,98,96,83,30.47,30.15,8,2,11,0.16
2013-2-24,47.8,39.5,32.9,40.6,34.6,30.9,98,84,57,30.47,30.14,5,2,8,0.00
2013-2-25,45.6,40.6,34.8,42.7,37.3,33.6,97,89,68,30.43,30.11,6,2,17,0.17
2013-2-26,49.4,40.0,33.0,38.5,35.0,32.5,98,84,58,30.40,30.24,4,1,6,0.00
2013-2-27,52.3,45.0,39.3,45.3,40.5,36.1,96,85,65,30.33,30.23,3,1,6,0.04
2013-2-28,55.2,51.2,46.4,54.4,50.2,45.3,98,97,93,30.46,30.22,4,1,9,0.05